Weather History for Cambridge, MD

Change the Weather History Date:

Monday, January 21, 2013

  Actual Average (KESN) Record (KESN)
Temperature  
Mean Temperature 37 °F -  
Max Temperature 46 °F 42 °F 66 °F (1951)
Min Temperature 28 °F 25 °F 9 °F (1970)
Degree Days  
Heating Degree Days 28    
Moisture  
Dew Point 27 °F    
Average Humidity 66    
Maximum Humidity 93    
Minimum Humidity 45    
Precipitation  
Precipitation 0.00 in - - ()
Sea Level Pressure  
Sea Level Pressure 29.97 in    
Wind  
Wind Speed 6 mph (ENE)    
Max Wind Speed 21 mph    
Max Gust Speed 28 mph    
Visibility 10 miles    
Events      
Averages and records for this station are not official NWS values.
T = Trace of Precipitation, MM = Missing Value Source: NWS Daily Summary

Daily Weather History Graph

Daily Weather History Graph

Search for Another Location

Airport:

Trip Planner

Search our weather history database for the weather conditions in past years. The results will help you decide how hot, cold, wet, or windy it might be!

Date:

Astronomy

Jan. 21, 2013 Rise Set
Actual Time 7:17 AM EST 5:14 PM EST
Civil Twilight 6:48 AM EST 5:42 PM EST
Nautical Twilight 6:16 AM EST 6:14 PM EST
Astronomical Twilight 5:44 AM EST 6:46 PM EST
Moon 12:52 PM EST (1/21) 2:43 AM EST (1/21)
Length of Visible Light 10h 53m
Length of Day
9h 56m
Waxing Gibbous, 75% of the Moon is Illuminated
Jan 21
Waxing Gibbous
Jan 26
Full
Feb 3
Last Quarter
Feb 10
New
Feb 17
First Quarter

Hourly Weather History & Observations

Time (EST) Temp. Windchill Dew Point Humidity Pressure Visibility Wind Dir Wind Speed Gust Speed Precip Events Conditions
12:15 AM 41.0 °F 39.0 °F 21.2 °F 45% 30.06 in 10.0 mi North 3.5 mph - N/A   Clear
12:36 AM 41.0 °F 38.0 °F 23.0 °F 49% 30.07 in 10.0 mi North 4.6 mph - N/A   Clear
12:57 AM 37.4 °F 33.8 °F 21.2 °F 52% 30.07 in 10.0 mi NNE 4.6 mph - N/A   Clear
1:19 AM 37.4 °F 30.8 °F 23.0 °F 56% 30.07 in 10.0 mi North 9.2 mph - N/A   Clear
2:01 AM 35.6 °F 29.9 °F 21.2 °F 56% 30.08 in 10.0 mi North 6.9 mph - N/A   Clear
2:23 AM 35.6 °F 31.7 °F 21.2 °F 56% 30.10 in 10.0 mi North 4.6 mph - N/A   Clear
2:44 AM 35.6 °F 31.7 °F 21.2 °F 56% 30.10 in 10.0 mi ENE 4.6 mph - N/A   Clear
3:05 AM 35.6 °F 31.7 °F 21.2 °F 56% 30.11 in 10.0 mi North 4.6 mph - N/A   Clear
3:27 AM 33.8 °F 29.6 °F 21.2 °F 60% 30.11 in 10.0 mi NNE 4.6 mph - N/A   Clear
3:48 AM 32.0 °F 27.5 °F 21.2 °F 64% 30.10 in 10.0 mi NNE 4.6 mph - N/A   Clear
4:09 AM 32.0 °F 28.7 °F 21.2 °F 64% 30.10 in 10.0 mi NE 3.5 mph - N/A   Clear
4:31 AM 32.0 °F 28.7 °F 21.2 °F 64% 30.10 in 10.0 mi NE 3.5 mph - N/A   Clear
4:52 AM 32.0 °F - 21.2 °F 64% 30.10 in 10.0 mi Calm Calm - N/A   Clear
5:35 AM 30.2 °F - 24.8 °F 80% 30.10 in 10.0 mi Calm Calm - N/A   Clear
5:56 AM 28.4 °F - 23.0 °F 80% 30.10 in 10.0 mi Calm Calm - N/A   Clear
6:17 AM 28.4 °F - 23.0 °F 80% 30.10 in 10.0 mi Calm Calm - N/A   Clear
6:39 AM 28.4 °F 24.6 °F 23.0 °F 80% 30.11 in 10.0 mi ENE 3.5 mph - N/A   Clear
7:00 AM 28.4 °F 24.6 °F 23.0 °F 80% 30.11 in 10.0 mi NE 3.5 mph - N/A   Clear
7:21 AM 28.4 °F 24.6 °F 23.0 °F 80% 30.11 in 10.0 mi NE 3.5 mph - N/A   Clear
8:04 AM 32.0 °F 28.7 °F 21.2 °F 64% 30.11 in 10.0 mi NE 3.5 mph - N/A   Clear
8:25 AM 32.0 °F 26.4 °F 21.2 °F 64% 30.11 in 10.0 mi ENE 5.8 mph - N/A   Clear
8:46 AM 32.0 °F 27.5 °F 21.2 °F 64% 30.12 in 10.0 mi East 4.6 mph - N/A   Clear
9:08 AM 33.8 °F 28.6 °F 21.2 °F 60% 30.11 in 10.0 mi East 5.8 mph - N/A   Clear
9:50 AM 35.6 °F 28.6 °F 21.2 °F 56% 30.10 in 10.0 mi East 9.2 mph - N/A   Clear
10:11 AM 35.6 °F 28.6 °F 23.0 °F 60% 30.10 in 10.0 mi ESE 9.2 mph - N/A   Clear
10:33 AM 35.6 °F 28.0 °F 23.0 °F 60% 30.09 in 10.0 mi SE 10.4 mph - N/A   Clear
10:54 AM 37.4 °F 31.4 °F 23.0 °F 56% 30.08 in 10.0 mi ESE 8.1 mph - N/A   Clear
11:15 AM 39.2 °F 34.2 °F 23.0 °F 52% 30.06 in 10.0 mi East 6.9 mph - N/A   Clear
11:37 AM 41.0 °F 37.1 °F 24.8 °F 53% 30.05 in 10.0 mi SSE 5.8 mph - N/A   Clear
11:58 AM 41.0 °F 36.4 °F 23.0 °F 49% 30.03 in 10.0 mi SE 6.9 mph - N/A   Clear
12:19 PM 41.0 °F 34.7 °F 24.8 °F 53% 30.01 in 10.0 mi SSE 10.4 mph - N/A   Clear
1:02 PM 42.8 °F 39.3 °F 23.0 °F 46% 29.97 in 10.0 mi SE 5.8 mph - N/A   Clear
1:23 PM 42.8 °F 38.6 °F 24.8 °F 49% 29.95 in 10.0 mi SSE 6.9 mph 10.4 mph N/A   Clear
1:44 PM 42.8 °F 36.6 °F 26.6 °F 53% 29.94 in 10.0 mi South 11.5 mph 16.1 mph N/A   Clear
2:06 PM 42.8 °F 37.0 °F 28.4 °F 57% 29.92 in 10.0 mi SSE 10.4 mph - N/A   Clear
2:27 PM 42.8 °F 38.6 °F 28.4 °F 57% 29.90 in 10.0 mi South 6.9 mph - N/A   Clear
2:48 PM 46.4 °F 41.9 °F 32.0 °F 57% 29.88 in 10.0 mi South 9.2 mph - N/A   Clear
3:10 PM 46.4 °F 41.9 °F 32.0 °F 57% 29.86 in 10.0 mi South 9.2 mph 17.3 mph N/A   Clear
3:31 PM 46.4 °F 39.8 °F 33.8 °F 62% 29.84 in 10.0 mi South 16.1 mph 20.7 mph N/A   Clear
3:52 PM 46.4 °F 41.9 °F 33.8 °F 62% 29.84 in 10.0 mi SSE 9.2 mph 19.6 mph N/A   Clear
4:14 PM 46.4 °F 41.1 °F 33.8 °F 62% 29.82 in 10.0 mi SSE 11.5 mph 17.3 mph N/A   Clear
4:35 PM 44.6 °F 40.7 °F 33.8 °F 66% 29.81 in 10.0 mi South 6.9 mph - N/A   Clear
4:56 PM 44.6 °F 40.7 °F 33.8 °F 66% 29.81 in 10.0 mi SSE 6.9 mph - N/A   Clear
5:17 PM 42.8 °F 38.6 °F 35.6 °F 76% 29.80 in 10.0 mi South 6.9 mph - N/A   Clear
5:39 PM 42.8 °F 39.3 °F 35.6 °F 76% 29.79 in 10.0 mi South 5.8 mph - N/A   Clear
6:00 PM 41.0 °F 39.0 °F 35.6 °F 81% 29.79 in 10.0 mi South 3.5 mph - N/A   Scattered Clouds
6:21 PM 41.0 °F 39.0 °F 33.8 °F 76% 29.79 in 10.0 mi SSE 3.5 mph - N/A   Clear
6:42 PM 41.0 °F 39.0 °F 35.6 °F 81% 29.78 in 10.0 mi SE 3.5 mph - N/A   Scattered Clouds
7:04 PM 41.0 °F - 35.6 °F 81% 29.77 in 10.0 mi Calm Calm - N/A   Scattered Clouds
7:25 PM 41.0 °F 38.0 °F 35.6 °F 81% 29.79 in 10.0 mi NW 4.6 mph - N/A   Scattered Clouds
7:46 PM 42.8 °F 35.8 °F 35.6 °F 76% 29.81 in 10.0 mi NNW 13.8 mph 25.3 mph N/A   Scattered Clouds
8:08 PM 37.4 °F 26.9 °F 28.4 °F 70% 29.84 in 10.0 mi NNW 20.7 mph 27.6 mph N/A   Scattered Clouds
8:29 PM 37.4 °F 29.3 °F 30.2 °F 75% 29.85 in 10.0 mi North 12.7 mph 21.9 mph N/A   Mostly Cloudy
8:50 PM 35.6 °F 27.5 °F 32.0 °F 87% 29.86 in 10.0 mi North 11.5 mph - N/A   Mostly Cloudy
9:11 PM 35.6 °F 26.2 °F 32.0 °F 87% 29.88 in 10.0 mi NNW 15.0 mph 21.9 mph N/A   Scattered Clouds
9:33 PM 35.6 °F 27.1 °F 32.0 °F 87% 29.88 in 10.0 mi North 12.7 mph 16.1 mph N/A   Clear
9:54 PM 35.6 °F 28.0 °F 32.0 °F 87% 29.89 in 10.0 mi North 10.4 mph - N/A   Clear
10:15 PM 33.8 °F 25.3 °F 30.2 °F 87% 29.89 in 10.0 mi North 11.5 mph - N/A   Clear
10:37 PM 32.0 °F 24.8 °F 28.4 °F 87% 29.89 in 10.0 mi North 8.1 mph - N/A   Clear
10:58 PM 32.0 °F 27.5 °F 30.2 °F 93% 29.90 in 10.0 mi North 4.6 mph - N/A   Clear
11:19 PM 35.6 °F 28.0 °F 23.0 °F 60% 29.91 in 10.0 mi NW 10.4 mph 18.4 mph N/A   Clear
11:41 PM 35.6 °F 26.6 °F 23.0 °F 60% 29.91 in 10.0 mi NW 13.8 mph 21.9 mph N/A   Clear